Location: Cheching
(60.0667°N, 164.2167°W)
Time: 00:09:14
(UTC+00:00)

DX 1 - Pass Details

Date: 27 January 2021
Orbit: 618 x 631 km, 98.5° (Epoch: 07 March)

Event Time Altitude Azimuth Distance (km) Brightness Sun altitude
Rises 16:51:58 0° 175° (S) 2,908 ? -18.0°
Reaches altitude 10° 16:54:12 10° 180° (S) 2,003 ? -17.7°
Maximum altitude 16:58:28 53° 258° (WSW) 776 ? -17.2°
Enters shadow 17:02:02 14° 333° (NNW) 1,734 ? -16.7°
